Terminal Aerodrome Forecast
Issued by NWS Denver/Boulder, CO

Home | Current Version | Previous Version | Text Only | Print | Product List | Glossary On
Versions: 1 2 3 4 5 6 7 8 9 10 11 12 13 14 15 16 17 18 19 20 21 22 23 24 25 26 27 28 29 30 31 32 33 34 35 36 37 38 39 40 41 42 43 44 45 46 47 48 49 50
000
FTUS45 KBOU 030310 AAB
TAFDEN
TAF AMD
KDEN 030310Z 0303/0406 18011KT P6SM FEW110 SCT150 BKN200
     FM031500 28006KT P6SM FEW120 BKN180
     FM031800 04007KT P6SM SCT090 BKN120
     FM032100 14010KT P6SM VCSH BKN080 PROB30 0322/0402 VRB20G30KT
      -TSRA BKN080CB=

USA.gov is the U.S. government's official web portal to all federal, state and local government web resources and services.